[[{"header":{"parameterUnit":"m.s-1","parameterCategory":1,"la1":30.2991,"la2":30.254,"lo1":-89.0895,"lo2":-89.0444,"dy":0.0017,"dx":0.0017,"nx":28,"ny":28,"refTime":"2024-10-03T21:00:00:Z","depth":0,"parameterNumber":2,"parameterNumberName":"U-component_of_WINDS"},"data":[0,0,0,0,0,0,0,0,0,0,0,0,0,0,0,0,0,0,0,0,0,0,0,0,0,0,0,0,0,0,0,0,0,0,0,0,0,0,0,0,0,0,0,0,0,0,0,0,0,0,0,0,0,0,0,0,0,0,-3.8985,-3.8985,0,-3.9019,-3.902,-3.902,-3.8901,-3.8898,-3.8894,-3.8891,-3.8927,-3.8931,-3.8935,0,0,0,0,0,0,0,0,0,0,0,0,0,-3.8816,-3.882,-3.8985,-3.8986,-3.8986,-3.9019,-3.902,-3.902,-3.8902,-3.8897,-3.8893,-3.8889,-3.8925,-3.893,-3.8935,0,0,0,0,0,0,0,0,0,0,0,0,0,-3.8874,-3.8821,-3.8985,-3.8931,-3.8926,-3.9019,-3.902,-3.902,-3.8903,-3.8897,-3.8892,-3.8887,-3.8924,-3.893,-3.8936,-3.9083,0,0,-3.8956,-3.8959,0,0,0,0,0,0,0,0,-3.8871,-3.8881,-3.8938,-3.8935,-3.893,-3.895,-3.8973,-3.9042,-3.8904,-3.8912,-3.889,-3.8884,-3.8939,-3.8944,-3.8962,-3.9085,-3.9087,-3.8956,-3.896,-3.8963,-3.8965,0,0,0,0,0,0,0,-3.8867,-3.8878,-3.8999,-3.8939,-3.8934,-3.8905,-3.8907,-3.8986,-3.8955,-3.8911,-3.8902,-3.8908,-3.8936,-3.8956,-3.8962,-3.9087,-3.8956,-3.8962,-3.8966,-3.8968,-3.9332,-3.9337,0,0,0,0,0,0,-3.887,-3.8876,-3.8997,-3.9,-3.8887,-3.8912,-3.8915,-3.8949,-3.8954,-3.8949,-3.8912,-3.8902,-3.8948,-3.8955,-3.8963,-3.9136,-3.8963,-3.8969,-3.8973,-3.9326,-3.9333,-3.9339,0,0,0,0,0,0,-3.8867,-3.8882,-3.8996,-3.8935,-3.8948,-3.8921,-3.8961,-3.8953,-3.8973,-3.8955,-3.8949,-3.8939,-3.8944,-3.8954,-3.9054,-3.9135,-3.8972,-3.8978,-3.9319,-3.9328,-3.9336,-3.9483,0,0,0,0,0,0,-3.8863,-3.8882,-3.8938,-3.8938,-3.8951,-3.9088,-3.8966,-3.8957,-3.8985,-3.8972,-3.8979,-3.8975,-3.894,-3.9045,-3.9061,-3.9141,-3.8983,-3.9312,-3.9323,-3.9334,-3.9471,-3.9496,-3.9517,0,0,0,0,0,-3.8857,-3.8978,-3.8941,-3.8957,-3.9021,-3.9092,-3.91,-3.9058,-3.8992,-3.9048,-3.9036,-3.8974,-3.9124,-3.9056,-3.9073,-3.9157,-3.9307,-3.932,-3.9333,-3.9461,-3.9491,-3.9516,0,0,0,0,0,0,-3.8989,-3.8977,-3.8936,-3.906,-3.9078,-3.9072,-3.9142,-3.9092,-3.9129,-3.9116,-3.9062,-3.9064,-3.9175,-3.9175,-3.9101,-3.9299,-3.9204,-3.9221,-3.9295,-3.9324,-3.9346,-3.9345,-3.8988,0,0,0,0,0,-3.9032,-3.9092,-3.9078,-3.9189,-3.92,-3.917,-3.9199,-3.9165,-3.9181,-3.9189,-3.9184,-3.9203,-3.9253,-3.9288,-3.9334,-3.9469,-3.9469,-3.9535,-3.9558,-3.9577,-3.9593,-3.9665,-3.9694,-3.9382,-3.9382,-3.9382,0,0,-3.9123,-3.9124,-3.9165,-3.9215,-3.9225,-3.9288,-3.9177,-3.9248,-3.9294,-3.9199,-3.9294,-3.9291,-3.9308,-3.9427,-3.9479,-3.9431,-3.9679,-3.9594,-3.9609,-3.9615,-3.9681,-3.9711,-3.9737,-3.9391,-3.939,-3.9388,0,0,-3.9321,-3.9327,-3.942,-3.9432,-3.9448,-3.9427,-3.9449,-3.945,-3.9445,-3.9539,-3.9469,-3.9523,-3.9612,-3.9627,-3.9646,-3.9847,-3.9793,-3.9864,-3.9985,-4.0056,-4.008,-4.0102,-4.0175,-4.0201,-3.9879,-3.988,-3.988,0,-3.9432,-3.9523,-3.9474,-3.955,-3.9575,-3.9491,-3.9585,-3.9599,-3.963,-3.9648,-3.9593,-3.9703,-3.9708,-3.9829,-3.9879,-3.9896,-3.9921,-3.9864,-4.008,-4.0102,-4.0121,-4.019,-4.0218,-3.9888,-3.9887,-3.9886,-3.9885,0,-3.9659,-3.9724,-3.9797,-3.9829,-3.9861,-3.9945,-3.9909,-3.9948,-3.991,-3.9895,-3.9991,-3.9994,-4.004,-4.0065,-4.003,-4.0182,-4.0151,-4.009,-3.9993,-4.016,-4.0224,-4.025,-3.99,-3.9897,-3.9895,-3.9893,0,0,-3.9943,-3.9945,-3.9973,-3.9986,-3.9997,-4.0046,-4.0126,-4.017,-4.0204,-4.0227,-4.0294,-4.037,-4.0313,-4.0335,-4.0299,-4.0362,-4.0522,-4.0292,-4.0291,-4.0336,-4.069,-4.0738,-4.077,-4.0485,-4.0489,-4.0493,-4.0689,0,-4.0138,-4.0276,-4.0234,-4.0373,-4.0432,-4.0353,-4.0423,-4.0437,-4.0424,-4.0472,-4.0457,-4.0513,-4.0432,-4.0445,-4.0503,-4.0491,-4.0593,-4.0475,-4.0547,-4.055,-4.0547,-4.0803,-4.0854,-4.1039,-4.0714,-4.0718,-4.0721,0,-4.0385,-4.0418,-4.0563,-4.0564,-4.0587,-4.0651,-4.0687,-4.0733,-4.0748,-4.0734,-4.0758,-4.071,-4.0788,-4.069,-4.0798,-4.0719,-4.0745,-4.0743,-4.0749,-4.0756,-4.0647,-4.0818,-4.1097,-4.1126,-4.076,-4.0757,-4.0754,0,-4.058,-4.066,-4.0757,-4.077,-4.0773,-4.0819,-4.0823,-4.0831,-4.086,-4.0891,-4.0909,-4.095,-4.0972,-4.1004,-4.0968,-4.09,-4.1082,-4.098,-4.1073,-4.1075,-4.1117,-4.1116,-4.1406,-4.1132,-4.1131,-4.1131,-4.113,0,-4.0803,-4.0896,-4.0844,-4.0904,-4.1005,-4.0955,-4.1056,-4.105,-4.1058,-4.1115,-4.1048,-4.1104,-4.1051,-4.1102,-4.1074,-4.1168,-4.1178,-4.1169,-4.1161,-4.1177,-4.1178,-4.1195,-4.1182,-4.1138,-4.1136,-4.1135,-4.1134,0,-4.1038,-4.1007,-4.1108,-4.1102,-4.1102,-4.1177,-4.1171,-4.1227,-4.1208,-4.1282,-4.1296,-4.1267,-4.1323,-4.1289,-4.1346,-4.1327,-4.145,-4.1423,-4.1446,-4.144,-4.1535,-4.1527,-4.1848,-4.1888,-4.1587,-4.1589,-4.1592,0,-4.1184,-4.1253,-4.1254,-4.1287,-4.1295,-4.135,-4.1379,-4.1331,-4.1364,-4.1384,-4.1437,-4.1487,-4.1525,-4.1618,-4.1602,-4.1645,-4.162,-4.1729,-4.1626,-4.1639,-4.1623,-4.162,-4.1627,-4.1751,-4.1754,-4.1757,-4.1759,0,-4.1447,-4.1428,-4.1471,-4.1511,-4.1547,-4.1575,-4.1598,-4.1629,-4.1581,-4.1621,-4.1677,-4.1706,-4.1764,-4.1815,-4.1851,-4.1853,-4.18,-4.1792,-4.1816,-4.1833,-4.1844,-4.1841,-4.1505,-4.1785,-4.1782,-4.1781,-4.1779,-4.1778,-4.1642,-4.17,-4.171,-4.1761,-4.1772,-4.1795,-4.1847,-4.1834,-4.188,-4.1923,-4.1892,-4.1959,-4.197,-4.2012,-4.2022,-4.2073,-4.2029,-4.2064,-4.2073,-4.2083,-4.2097,-4.1834,-4.208,-4.2079,-4.2078,-4.2077,-4.2077,0,-4.1903,-4.1904,-4.1952,-4.1985,-4.2026,-4.1969,-4.1991,-4.2029,-4.2088,-4.2103,-4.2141,-4.2206,-4.2254,-4.2241,-4.2285,-4.2328,-4.2305,-4.2342,-4.2339,-4.234,-4.2133,-4.2109,-4.236,-4.236,-4.236,-4.236,-4.236,-4.236,-4.2043,-4.2138,-4.212,-4.2219,-4.222,-4.2285,-4.2302,-4.2323,-4.2334,-4.2409,-4.2449,-4.244,-4.2444,-4.2486,-4.2528,-4.2523,-4.2543,-4.259,-4.2576,-4.2383,-4.2355,-4.2328,-4.2305,-4.2594,-4.2594,-4.2779,-4.2781,-4.2782]},{"header":{"parameterUnit":"m.s-1","parameterCategory":1,"la1":30.2991,"la2":30.254,"lo1":-89.0895,"lo2":-89.0444,"dy":0.0017,"dx":0.0017,"nx":28,"ny":28,"refTime":"2024-10-03T21:00:00:Z","depth":0,"parameterNumber":3,"parameterNumberName":"V-component_of_WINDS"},"data":[0,0,0,0,0,0,0,0,0,0,0,0,0,0,0,0,0,0,0,0,0,0,0,0,0,0,0,0,0,0,0,0,0,0,0,0,0,0,0,0,0,0,0,0,0,0,0,0,0,0,0,0,0,0,0,0,0,0,-4.5994,-4.5994,0,-4.6034,-4.6034,-4.6035,-4.5986,-4.5984,-4.5982,-4.5981,-4.6019,-4.6022,-4.6024,0,0,0,0,0,0,0,0,0,0,0,0,0,-4.5872,-4.5874,-4.5994,-4.5994,-4.5995,-4.6034,-4.6034,-4.6035,-4.5986,-4.5984,-4.5982,-4.598,-4.6018,-4.6021,-4.6024,0,0,0,0,0,0,0,0,0,0,0,0,0,-4.5919,-4.5875,-4.5994,-4.5975,-4.5974,-4.6034,-4.6034,-4.6035,-4.5987,-4.5984,-4.5981,-4.5979,-4.6017,-4.6021,-4.6025,-4.6103,0,0,-4.6037,-4.6039,0,0,0,0,0,0,0,0,-4.5917,-4.5924,-4.5978,-4.5977,-4.5975,-4.6002,-4.6005,-4.6058,-4.5987,-4.5982,-4.5981,-4.5978,-4.6015,-4.6019,-4.6033,-4.6105,-4.6107,-4.6038,-4.604,-4.6042,-4.6043,0,0,0,0,0,0,0,-4.5913,-4.5922,-4.6009,-4.5978,-4.5977,-4.5964,-4.5968,-4.6015,-4.6013,-4.5982,-4.5979,-4.5984,-4.6014,-4.6029,-4.6033,-4.6107,-4.6037,-4.6041,-4.6044,-4.6045,-4.6244,-4.6247,0,0,0,0,0,0,-4.5913,-4.5919,-4.6008,-4.6011,-4.5939,-4.5968,-4.5972,-4.5996,-4.6012,-4.6012,-4.5987,-4.5982,-4.6023,-4.6029,-4.6034,-4.6126,-4.6042,-4.6045,-4.6048,-4.6241,-4.6245,-4.6248,0,0,0,0,0,0,-4.591,-4.5921,-4.6007,-4.5964,-4.5974,-4.5973,-4.6,-4.5998,-4.6013,-4.6016,-4.6015,-4.6002,-4.6021,-4.6029,-4.6086,-4.6126,-4.6047,-4.6051,-4.6238,-4.6242,-4.6246,-4.6311,0,0,0,0,0,0,-4.5907,-4.5921,-4.5951,-4.5965,-4.5977,-4.6059,-4.6003,-4.6001,-4.602,-4.6015,-4.603,-4.603,-4.602,-4.6081,-4.609,-4.6131,-4.6054,-4.6234,-4.624,-4.6245,-4.6305,-4.6317,-4.6327,0,0,0,0,0,-4.5903,-4.5968,-4.5953,-4.5964,-4.6015,-4.6062,-4.6068,-4.6056,-4.6024,-4.6054,-4.6056,-4.603,-4.6121,-4.6087,-4.6097,-4.614,-4.6232,-4.6238,-4.6245,-4.63,-4.6314,-4.6326,0,0,0,0,0,0,-4.5958,-4.5969,-4.5953,-4.6025,-4.6043,-4.6053,-4.6091,-4.6072,-4.6098,-4.6092,-4.6074,-4.6078,-4.6139,-4.6145,-4.6107,-4.6215,-4.6171,-4.618,-4.6209,-4.6223,-4.6234,-4.623,-4.6057,0,0,0,0,0,-4.5979,-4.6017,-4.6024,-4.6086,-4.6096,-4.6093,-4.6112,-4.6101,-4.6119,-4.6126,-4.6131,-4.6148,-4.618,-4.6202,-4.6232,-4.6306,-4.6307,-4.634,-4.635,-4.6359,-4.6367,-4.6404,-4.6418,-4.6269,-4.6269,-4.6269,0,0,-4.6022,-4.6032,-4.6057,-4.6098,-4.611,-4.6148,-4.6099,-4.6142,-4.617,-4.6132,-4.6186,-4.6191,-4.6209,-4.6274,-4.6303,-4.6281,-4.6408,-4.6368,-4.6375,-4.6377,-4.6412,-4.6426,-4.6439,-4.6273,-4.6273,-4.6272,0,0,-4.6119,-4.6132,-4.6184,-4.6198,-4.6218,-4.6214,-4.6227,-4.624,-4.6242,-4.6297,-4.6269,-4.6301,-4.6357,-4.6371,-4.6385,-4.6486,-4.6462,-4.6496,-4.6552,-4.6589,-4.6601,-4.6611,-4.6645,-4.6658,-4.6504,-4.6504,-4.6504,0,-4.617,-4.6227,-4.6214,-4.6258,-4.6276,-4.6244,-4.6296,-4.6309,-4.6338,-4.635,-4.6325,-4.6394,-4.6404,-4.6471,-4.6496,-4.6509,-4.6521,-4.6494,-4.66,-4.661,-4.662,-4.6652,-4.6665,-4.6508,-4.6507,-4.6507,-4.6506,0,-4.6287,-4.6327,-4.6367,-4.6396,-4.6418,-4.6466,-4.6459,-4.6482,-4.6469,-4.6468,-4.6523,-4.6534,-4.6564,-4.658,-4.6567,-4.6645,-4.663,-4.6603,-4.6558,-4.6638,-4.6668,-4.6681,-4.6513,-4.6512,-4.6511,-4.651,0,0,-4.6421,-4.6441,-4.6455,-4.6467,-4.6486,-4.6516,-4.6562,-4.6592,-4.6612,-4.6633,-4.6669,-4.6717,-4.6692,-4.6708,-4.6697,-4.6729,-4.6806,-4.6697,-4.6698,-4.6716,-4.689,-4.6909,-4.6924,-4.6791,-4.6793,-4.6795,-4.6888,0,-4.6517,-4.6598,-4.6586,-4.6663,-4.6698,-4.6668,-4.6708,-4.6723,-4.6723,-4.6752,-4.6751,-4.6785,-4.675,-4.6759,-4.679,-4.679,-4.684,-4.6784,-4.6823,-4.6825,-4.6819,-4.694,-4.6961,-4.7048,-4.69,-4.6902,-4.6903,0,-4.6641,-4.6665,-4.6746,-4.6757,-4.6772,-4.6808,-4.6834,-4.6863,-4.6879,-4.6876,-4.6894,-4.6876,-4.692,-4.6875,-4.6934,-4.6896,-4.6911,-4.6914,-4.6917,-4.6919,-4.6868,-4.6944,-4.7076,-4.7089,-4.6922,-4.6921,-4.6919,0,-4.6728,-4.6781,-4.6836,-4.6847,-4.6862,-4.6888,-4.6895,-4.6909,-4.6927,-4.695,-4.6961,-4.6989,-4.7003,-4.7024,-4.7014,-4.6982,-4.7075,-4.7029,-4.7072,-4.7073,-4.7092,-4.7091,-4.7227,-4.7105,-4.7105,-4.7104,-4.7104,0,-4.6836,-4.6886,-4.6875,-4.6909,-4.6963,-4.6949,-4.7002,-4.7006,-4.7018,-4.705,-4.7025,-4.7056,-4.7041,-4.707,-4.7062,-4.7112,-4.7119,-4.7117,-4.7114,-4.7118,-4.7119,-4.7128,-4.7121,-4.7108,-4.7107,-4.7106,-4.7106,0,-4.6943,-4.6938,-4.6995,-4.7004,-4.7008,-4.7047,-4.7055,-4.7085,-4.7083,-4.7124,-4.7133,-4.713,-4.7162,-4.7154,-4.719,-4.7185,-4.7247,-4.7237,-4.7242,-4.7239,-4.7282,-4.7278,-4.7428,-4.7446,-4.7313,-4.7315,-4.7316,0,-4.7011,-4.7049,-4.7063,-4.7083,-4.7092,-4.7125,-4.7144,-4.7131,-4.7151,-4.7171,-4.7198,-4.7229,-4.7253,-4.7307,-4.7307,-4.7334,-4.7323,-4.7374,-4.7327,-4.733,-4.7322,-4.7319,-4.7322,-4.7383,-4.7384,-4.7386,-4.7387,0,-4.7133,-4.7129,-4.7157,-4.7184,-4.7207,-4.7228,-4.7246,-4.7264,-4.7252,-4.7276,-4.7309,-4.7328,-4.7364,-4.7394,-4.7419,-4.7425,-4.7403,-4.7402,-4.7413,-4.7417,-4.7418,-4.7416,-4.7265,-4.7398,-4.7397,-4.7396,-4.7395,-4.7395,-4.7222,-4.7253,-4.7267,-4.7299,-4.7311,-4.7329,-4.7357,-4.7359,-4.7387,-4.7415,-4.7406,-4.7444,-4.7457,-4.7487,-4.7496,-4.7525,-4.7506,-4.7522,-4.7526,-4.753,-4.7535,-4.7414,-4.753,-4.7529,-4.7529,-4.7529,-4.7528,0,-4.7341,-4.7349,-4.7378,-4.7404,-4.7429,-4.7407,-4.7426,-4.7447,-4.7481,-4.7496,-4.7519,-4.7557,-4.7586,-4.7588,-4.7615,-4.7637,-4.7628,-4.7644,-4.7642,-4.7643,-4.7552,-4.7538,-4.7651,-4.7651,-4.7651,-4.7651,-4.7651,-4.7651,-4.7406,-4.7457,-4.7454,-4.751,-4.7517,-4.7554,-4.7567,-4.7582,-4.7593,-4.7636,-4.766,-4.7661,-4.767,-4.7697,-4.7722,-4.7722,-4.7732,-4.7752,-4.7748,-4.7662,-4.765,-4.7638,-4.7626,-4.7755,-4.7755,-4.7837,-4.7838,-4.7839]}]]